Weather in Yuzhno-Stepnoy

Russia / Chelyabinsk Oblast     52°49′16″N   60°40′50″E
temp.,
°C
wind,
m/s
gust,
m/s
humid.,
%
clouds,
%
prec.,
mm/h
press.,
hPa
HPBL,
m
14 may, fri
fri1423:00+20nw22385 0.0 102515
02:00+18nw33385 0.0 102621
05:00+16nw33444 0.0 102629
08:00+22nnw21365 0.0 1027168
11:00+27se00275 0.0 10261072
14:00+29sse01225 0.0 10252871
17:00+29wsw11205 0.0 10243308
20:00+26wnw332941 0.0 102453
15 may, sat
sat1523:00+21wnw11365 0.0 102513
02:00+20w23360 0.0 102418
05:00+18wnw33435 0.0 102538
08:00+22nw33402 0.0 1025211
11:00+27w33260 0.0 10241468
14:00+29w44204 0.0 10232921
17:00+30w33175 0.0 10223069
20:00+26nw33255 0.0 102231
16 may, sun
sun1623:00+22wnw33273 0.0 102224
02:00+19nw22455 0.0 102211
05:00+18nw22491 0.0 102311
08:00+23ne22415 0.0 1024203
11:00+28e22285 0.0 10231239
14:00+30ese12215 0.0 10222999
17:00+31s1219100 0.0 10213421
20:00+26ssw243194 0.4 102151
17 may, mon
mon1723:00+23n113638 1.4 102111
02:00+21w22383 0.0 102111
05:00+19wsw11415 0.0 102111
08:00+23wnw35372 0.0 1021218
11:00+29wnw45215 0.0 10212441
14:00+31w661960 0.0 10193712
17:00+31wnw55206 0.0 10173442
20:00+20s91554100 0.1 1020477
18 may, tue
tue1823:00+19wsw475496 0.2 1019136
02:00+18w3459100 0.0 101953
05:00+17nw346152 0.0 101856
08:00+22nnw354598 0.0 1018264
11:00+28nne44325 0.0 10171788
14:00+29n232695 0.0 10162650
17:00+30wnw442142 0.0 10153221
20:00+23ne7104380 0.0 1016512